Flag for Puerto Rico Weather past 2 weeks in Caguas, Puerto Rico

Now
78 °F

Passing clouds.


Feels Like: 80 °F
Forecast: 74 / 85 °F
Wind: 6 mph from East

Location: Luis Munoz Marin


UV Index: 10 (Very high)

Visibility: 10 mi


Pressure: 30.05 "Hg

Humidity: 76%

Dew point: 70 °F

Location of CaguasLocation

Historic Weather in Caguas

°F

Caguas temperature yesterday

Maximum temperature yesterday: 88 °F (at 11:56 AM)
Minimum temperature yesterday: 76 °F (at 5:56 AM)
Average temperature yesterday: 81 °F

Past Weeks' High & Low Weather Summary

 TemperatureHumidityPressure
High88 °F (Apr 6, 11:56 AM)97% (Apr 18, 2:56 AM)30.14 "Hg (Apr 18, 2:56 AM)
Low75 °F (Apr 12, 3:56 AM)50% (Apr 6, 11:56 AM)29.89 "Hg (Apr 15, 3:56 PM)
Average81 °F69%30.03 "Hg
* Reported Apr 5 9:56 PM — Apr 20 9:56 PM, Caguas, Weather by CustomWeather, © 2014

Note: Actual official high and low records may vary slightly from our data, if they occured in-between our weather recording intervals... More about our weather records

Advertising

Historic Weather Conditions — Data for Previous 24 hours

 ConditionsComfort  
Time TempWeatherWind HumidityBarometerVisibility
9:56 PM
Apr 20
79 °FPassing clouds.6 mph74%30.06 "Hg10 mi
8:56 PM79 °FPassing clouds.9 mph74%30.06 "Hg10 mi
7:56 PM80 °FPassing clouds.12 mph69%30.05 "Hg10 mi
6:56 PM82 °FScattered clouds.13 mph67%30.03 "Hg10 mi
5:56 PM83 °FScattered clouds.13 mph65%30.01 "Hg10 mi
4:56 PM83 °FMostly cloudy.6 mph68%30.01 "Hg10 mi
3:56 PM83 °FMostly cloudy.15 mph68%30.01 "Hg10 mi
2:56 PM82 °FBroken clouds.5 mph77%30.01 "Hg10 mi
1:56 PM85 °FLight rain. Partly sunny.8 mph63%30.02 "Hg10 mi
12:56 PM84 °FBroken clouds.No wind65%30.04 "Hg10 mi
11:56 AM88 °FScattered clouds.15 mph55%30.06 "Hg10 mi
10:56 AM87 °FScattered clouds.14 mph55%30.08 "Hg10 mi
9:56 AM85 °FScattered clouds.12 mph59%30.09 "Hg10 mi
8:56 AM83 °FScattered clouds.16 mph63%30.09 "Hg10 mi
7:56 AM81 °FScattered clouds.6 mph69%30.08 "Hg10 mi
6:56 AM77 °FPassing clouds.No wind79%30.07 "Hg10 mi
5:56 AM76 °FPassing clouds.No wind82%30.05 "Hg10 mi
4:56 AM77 °FMostly cloudy.5 mph79%30.04 "Hg10 mi
3:56 AM78 °FPassing clouds.3 mph79%30.03 "Hg10 mi
2:56 AM78 °FLight rain. Partly cloudy.3 mph79%30.03 "Hg10 mi
1:56 AM78 °FPartly cloudy.5 mph76%30.04 "Hg10 mi
12:56 AM78 °FPassing clouds.6 mph79%30.05 "Hg10 mi
Weather by CustomWeather, © 2014

See weather overview